Location: Unspecified
(0.0000°N, 0.0000°E)
Time: 18:58:58
(UTC+00:00)

Vanguard 1 - Pass Details

Date: 25 November 2019
Orbit: 652 x 3832 km, 34.3° (Epoch: 09 December)

Event Time Altitude Azimuth Distance (km) Brightness Sun altitude
Rises 16:57:14 0° 305° (NW) 2,954 13.1 11.6°
Reaches altitude 10° 16:59:18 10° 304° (NW) 2,093 12.4 11.1°
Maximum altitude 17:03:52 83° 217° (SW) 805 9.9 10.1°
Drops below altitude 10° 17:10:35 10° 128° (SE) 3,031 12.3 8.5°
Sets 17:14:10 0° 127° (SE) 4,426 13.1 7.7°
